Showing default

COSMO, 68460

Orbit data source: Space-Track

COSMO, 68460 is a payload satellite owned by Colorado (US) in SSO that was launched on Mon, 30 Mar 2026 UTC via an FALCON 9 launch vehicle from the Air Force Western Test Range (AFWTR). Payload-class satellites include a variety of spacecraft equipped with specific instruments for various scientific and technological missions. These include communications satellites like Starlink; space stations such as the ISS; scientific satellites like the Hubble; Earth observation satellites from companies like Planet Labs, Umbra, and HawkEye 360; GPS; miniature CubeSats for education and research; and military/defense satellites.

Loading next visibility...
Identifier
68460, 2026-067AW
Orbit
SSO
Country
Flag of USUS
Related business
Manufacturer
Colorado
Mission
Operational spacecraft
Bus & Motor
CUBESAT 6UXL, Unknown motor
Mass
~10 kg wet, ~10 kg dry
Launch date (UTC)
2026-03-30 (3 months ago)
Launch vehicle
FALCON 9
Launch site
Air Force Western Test Range (AFWTR)
Object type
Payload
Rocket body
Debris
Shape & HBR
Unknown shape, 0.3 m
Radar Cross Section
Medium (>0.1 m² and <1 m²)

Expand to show TLE details & history
Last TLE update: 2 days ago

TLE from 2 days ago
0 COSMO
1 68460U 26067AW  26171.34995118  .00009233  00000-0  45800-3 0  9999
2 68460  97.4493 129.6166 0008095  68.4938 291.7159 15.17910575 12416
Epoch: 2026-06-20T08:23Z
TLE epoch observation values (Epoch: 2026-06-20T08:23:55.781Z)
Latitude
0.00003°
Longitude
95.06834°
Altitude
513.182 km
Speed
7.608 km/s
True Right ascension
08h 38m 27s
True Declination
0° 00' 00"
Sunlit
Object was in daylight at epoch
Visualization orbit readout
Latitude
Unknown
Longitude
Unknown
Altitude
Unknown
Speed
Unknown
Apparent Right ascension
Unknown
Apparent Declination
Unknown
Sunlit
N/A
Visualization observer readout
Local Sidereal Time
21:43:28
Azimuth
Unknown
Elevation
Unknown
Doppler factor
Unknown
Orbital elements
Apogee altitude
514.702 km
Perigee altitude
503.552 km
Semi-major axis
6,887.264 km
Eccentricity
0.00081
Inclination
97.4493°
RAAN
129.6166°
Arg. of periapsis
68.4938°
True anomaly
291.62969°
Mean anomaly
291.7159°
Eccentric anomaly
291.6728°
Mean motion
3.79728 °/min
Orbital period
94.8 mins
BSTAR
0.000458
Loading maneuver chart data...
Computing Atmospheric mass density...
Loading historical data...
Loading historical data...
Loading historical data...
Loading historical data...
Loading historical data...
Loading historical data...
Loading historical data...

Documentation

Showing up to 5 results
|